| time (UTC) | temp C | wind direction | speed KPH | gust KPH | rain 1hr cm | rain 24hr cm | rain mn cm | humidity % | barometer mb |
| 20260504081555 | 15 | 211 | 9.7 | 25.7 | 0.00 | 0.00 | 0.00 | 37 | 995.4 |
| 20260504044549 | 15 | 126 | 8.0 | 16.1 | 0.00 | 0.00 | 0.00 | 40 | 999.7 |
| 20260504043052 | 14 | 173 | 4.8 | 12.9 | 0.00 | 0.00 | 0.00 | 40 | 1000.1 |
| 20260504041551 | 14 | 155 | 4.8 | 12.9 | 0.00 | 0.00 | 0.00 | 40 | 1000.3 |
| 20260504040055 | 15 | 153 | 6.4 | 14.5 | 0.00 | 0.00 | 0.00 | 41 | 1000.7 |
| 20260504034606 | 14 | 205 | 6.4 | 14.5 | 0.00 | 0.00 | 0.00 | 41 | 1001.1 |
| 20260504033051 | 14 | 174 | 4.8 | 12.9 | 0.00 | 0.00 | 0.00 | 41 | 1001.5 |
| 20260504031552 | 14 | 166 | 3.2 | 9.7 | 0.00 | 0.00 | 0.00 | 41 | 1001.8 |
| 20260504030054 | 15 | 173 | 3.2 | 9.7 | 0.00 | 0.00 | 0.00 | 42 | 1002.1 |
| 20260504024548 | 15 | 167 | 3.2 | 9.7 | 0.00 | 0.00 | 0.00 | 41 | 1002.4 |
| 20260504023057 | 15 | 213 | 3.2 | 14.5 | 0.00 | 0.00 | 0.00 | 40 | 1002.7 |
| 20260504021554 | 15 | 170 | 3.2 | 6.4 | 0.00 | 0.00 | 0.00 | 40 | 1002.9 |
| 20260504020056 | 15 | 190 | 0.0 | 3.2 | 0.00 | 0.00 | 0.00 | 39 | 1002.9 |
| 20260504014603 | 16 | 209 | 1.6 | 6.4 | 0.00 | 0.00 | 0.00 | 35 | 1003.0 |
| 20260504013052 | 17 | 242 | 1.6 | 6.4 | 0.00 | 0.00 | 0.00 | 34 | 1003.2 |
| 20260504011559 | 17 | 239 | 3.2 | 17.7 | 0.00 | 0.00 | 0.00 | 32 | 1003.3 |
| 20260504010059 | 18 | 221 | 9.7 | 20.9 | 0.00 | 0.00 | 0.00 | 31 | 1003.4 |
| 20260504004551 | 18 | 347 | 6.4 | 24.1 | 0.00 | 0.00 | 0.00 | 31 | 1003.4 |
| 20260504003059 | 19 | 232 | 6.4 | 17.7 | 0.00 | 0.00 | 0.00 | 29 | 1003.5 |
| 20260504001548 | 19 | 288 | 6.4 | 17.7 | 0.00 | 0.00 | 0.00 | 28 | 1003.7 |
| 20260504000049 | 20 | 281 | 9.7 | 22.5 | 0.00 | 0.00 | 0.00 | 28 | 1003.7 |
| 20260503234551 | 20 | 284 | 12.9 | 20.9 | 0.00 | 0.00 | 0.00 | 28 | 1003.9 |
| 20260503233054 | 20 | 260 | 4.8 | 20.9 | 0.00 | 0.00 | 0.00 | 27 | 1004.1 |
| 20260503231551 | 20 | 266 | 12.9 | 29.0 | 0.00 | 0.00 | 0.00 | 25 | 1004.3 |
| 20260503230051 | 21 | 300 | 8.0 | 19.3 | 0.00 | 0.00 | 0.00 | 27 | 1004.3 |
| 20260503224554 | 20 | 264 | 9.7 | 24.1 | 0.00 | 0.00 | 0.00 | 27 | 1004.5 |
| 20260503223057 | 20 | 265 | 11.3 | 27.4 | 0.00 | 0.00 | 0.00 | 25 | 1004.5 |
| 20260503221555 | 21 | 248 | 12.9 | 27.4 | 0.00 | 0.00 | 0.00 | 26 | 1004.6 |
| 20260503220059 | 21 | 271 | 16.1 | 27.4 | 0.00 | 0.00 | 0.00 | 26 | 1005.0 |
| 20260503214551 | 21 | 241 | 12.9 | 29.0 | 0.00 | 0.00 | 0.00 | 27 | 1005.0 |
| 20260503213107 | 21 | 271 | 16.1 | 27.4 | 0.00 | 0.00 | 0.00 | 26 | 1005.2 |
| 20260503211554 | 21 | 275 | 9.7 | 19.3 | 0.00 | 0.00 | 0.00 | 26 | 1005.3 |
| 20260503204558 | 21 | 269 | 11.3 | 25.7 | 0.00 | 0.00 | 0.00 | 27 | 1005.5 |
| 20260503203104 | 21 | 240 | 9.7 | 24.1 | 0.00 | 0.00 | 0.00 | 26 | 1005.8 |
| 20260503201600 | 21 | 263 | 11.3 | 25.7 | 0.00 | 0.00 | 0.00 | 26 | 1006.0 |
| 20260503200058 | 20 | 268 | 11.3 | 29.0 | 0.00 | 0.00 | 0.00 | 26 | 1006.2 |
| 20260503194555 | 20 | 252 | 9.7 | 22.5 | 0.00 | 0.00 | 0.00 | 28 | 1006.4 |
| 20260503193107 | 20 | 272 | 6.4 | 27.4 | 0.00 | 0.00 | 0.00 | 27 | 1006.6 |
| 20260503191556 | 20 | 275 | 9.7 | 20.9 | 0.00 | 0.00 | 0.00 | 27 | 1006.6 |
| 20260503190055 | 19 | 300 | 6.4 | 29.0 | 0.00 | 0.00 | 0.00 | 29 | 1006.9 |
| 20260503184604 | 20 | 261 | 11.3 | 25.7 | 0.00 | 0.00 | 0.00 | 26 | 1007.1 |
| 20260503183059 | 20 | 30 | 6.4 | 24.1 | 0.00 | 0.00 | 0.00 | 28 | 1007.2 |
| 20260503181608 | 20 | 279 | 6.4 | 20.9 | 0.00 | 0.00 | 0.00 | 26 | 1007.5 |
| 20260503180050 | 19 | 249 | 16.1 | 33.8 | 0.00 | 0.00 | 0.00 | 28 | 1007.6 |
| 20260503174549 | 18 | 279 | 4.8 | 25.7 | 0.00 | 0.00 | 0.00 | 28 | 1007.7 |
| 20260503173059 | 18 | 302 | 9.7 | 27.4 | 0.00 | 0.00 | 0.00 | 28 | 1007.8 |
| 20260503171547 | 18 | 20 | 8.0 | 22.5 | 0.00 | 0.00 | 0.00 | 30 | 1007.9 |